This demonstration page uses our WeatherBlox Daily Observations layout. Learn more.

Left ArrowRight Arrow

Hourly Observations for August 18, 2018

Temp ( °F °C ) Dew Point ( °F °C ) Humidity (%) Winds ( mph kmh ) Pressure ( in mb ) Visibility ( mi km ) Precip ( " mm )
12:17 am 00:17 Mostly Cloudy 70 21 70 21 100 100 N N/A 29.97 1015 10 16 N/A
12:36 am 00:36 Partly Cloudy 70 21 70 21 100 100 N N/A 29.97 1015 10 16 N/A
12:57 am 00:57 Partly Cloudy 68 20 68 20 100 100 N N/A 30.00 1016 7 11 N/A
1:16 am 01:16 Partly Cloudy 70 21 70 21 100 100 N N/A 29.97 1015 10 16 N/A
1:37 am 01:37 Clear 68 20 68 20 100 100 N N/A 30.00 1016 7 11 N/A
1:56 am 01:56 Clear 68 20 68 20 100 100 N N/A 30.00 1016 5 8 N/A
2:17 am 02:17 Cloudy 68 20 68 20 100 100 N N/A 30.00 1016 1 1 N/A
2:36 am 02:36 Cloudy 68 20 68 20 100 100 N N/A 30.00 1016 1 1 N/A
2:57 am 02:57 Partly Cloudy 66 19 66 19 100 100 N N/A 30.00 1016 1 2 N/A
3:16 am 03:16 Mostly Cloudy 66 19 66 19 100 100 N N/A 30.00 1016 1 1 N/A
3:37 am 03:37 Cloudy 66 19 66 19 100 100 N N/A 30.00 1016 0 0 N/A
3:56 am 03:56 Cloudy 68 20 68 20 100 100 N N/A 29.97 1015 1 2 N/A
4:17 am 04:17 Cloudy 68 20 68 20 100 100 N N/A 29.97 1015 1 1 N/A
4:36 am 04:36 Cloudy 68 20 68 20 100 100 N N/A 29.97 1015 1 1 N/A
4:57 am 04:57 Cloudy 68 20 68 20 100 100 N N/A 29.97 1015 0 0 N/A
5:17 am 05:17 Cloudy 68 20 68 20 100 100 N N/A 30.00 1016 0 0 N/A
5:36 am 05:36 Cloudy 68 20 68 20 100 100 N N/A 30.00 1016 0 0 N/A
5:57 am 05:57 Cloudy 68 20 68 20 100 100 N N/A 29.97 1015 0 0 N/A
6:16 am 06:16 Cloudy 68 20 68 20 100 100 NNE 3 6 30.00 1016 1 1 N/A
6:37 am 06:37 Cloudy 68 20 68 20 100 100 NNE 5 7 30.00 1016 0 0 N/A
6:56 am 06:56 Cloudy 68 20 68 20 100 100 N N/A 30.00 1016 1 1 N/A
7:17 am 07:17 Cloudy 68 20 68 20 100 100 N N/A 30.00 1016 1 1 N/A
7:36 am 07:36 Cloudy 68 20 68 20 100 100 N N/A 30.00 1016 1 1 N/A
7:57 am 07:57 Cloudy 68 20 68 20 100 100 N N/A 30.00 1016 0 0 N/A
8:16 am 08:16 Cloudy 68 20 68 20 100 100 N N/A 30.00 1016 1 2 N/A
8:37 am 08:37 Cloudy 68 20 68 20 100 100 N N/A 30.00 1016 0 0 N/A
8:56 am 08:56 Cloudy 68 20 68 20 100 100 N N/A 30.00 1016 1 1 N/A
9:17 am 09:17 Cloudy 70 21 70 21 100 100 N 6 9 29.97 1015 1 2 N/A
9:37 am 09:37 Cloudy 70 21 70 21 100 100 N 7 11 29.97 1015 1 2 N/A
9:56 am 09:56 Cloudy 70 21 70 21 100 100 NNE 6 9 29.97 1015 4 6 N/A
10:16 am 10:16 Cloudy 70 21 70 21 100 100 N 6 9 29.97 1015 7 11 N/A
10:37 am 10:37 Cloudy 70 21 70 21 100 100 N 7 11 29.97 1015 10 16 N/A
10:56 am 10:56 Mostly Cloudy 72 22 72 22 100 100 N 6 9 29.97 1015 10 16 N/A
11:17 am 11:17 Partly Cloudy 72 22 72 22 100 100 NNE 5 7 29.97 1015 10 16 N/A
11:36 am 11:36 Partly Cloudy 73 23 73 23 100 100 NE 8 13 29.97 1015 10 16 N/A
11:57 am 11:57 Mostly Cloudy 77 25 73 23 89 89 NNE 8 13 29.97 1015 10 16 N/A
12:16 pm 12:16 Mostly Cloudy 77 25 73 23 89 89 NNE 9 15 29.97 1015 10 16 N/A
12:37 pm 12:37 Mostly Cloudy 77 25 73 23 89 89 NNE 9 15 29.97 1015 10 16 N/A
12:56 pm 12:56 Partly Cloudy 77 25 73 23 89 89 N 8 13 29.97 1015 10 16 N/A
1:17 pm 13:17 Partly Cloudy 79 26 73 23 84 84 NNE 7 11 29.97 1015 10 16 N/A
1:36 pm 13:36 Partly Cloudy 79 26 73 23 84 84 N 8 13 29.97 1015 10 16 N/A
1:56 pm 13:56 Partly Cloudy 81 27 73 23 79 79 NE 6 9 29.97 1015 10 16 N/A
2:17 pm 14:17 Partly Cloudy 81 27 73 23 79 79 NNE 8 13 29.94 1014 10 16 N/A
2:36 pm 14:36 Partly Cloudy 81 27 73 23 79 79 N 7 11 29.94 1014 10 16 N/A
2:57 pm 14:57 Partly Cloudy 81 27 72 22 74 74 NNE 8 13 29.94 1014 10 16 N/A
3:16 pm 15:16 Partly Cloudy 82 28 73 23 74 74 N 9 15 29.94 1014 10 16 N/A
3:36 pm 15:36 Mostly Cloudy 81 27 73 23 79 79 N 6 9 29.94 1014 10 16 N/A
3:57 pm 15:57 Mostly Cloudy 81 27 73 23 79 79 N 8 13 29.94 1014 10 16 N/A
4:16 pm 16:16 Partly Cloudy 81 27 73 23 79 79 NNE 7 11 29.94 1014 10 16 N/A
4:37 pm 16:37 Sunny 81 27 72 22 74 74 NE 8 13 29.94 1014 10 16 N/A
4:56 pm 16:56 Sunny 81 27 72 22 74 74 NE 7 11 29.94 1014 10 16 N/A
5:16 pm 17:16 Partly Cloudy 82 28 73 23 74 74 NNE 7 11 29.94 1014 10 16 N/A
5:37 pm 17:37 Partly Cloudy 81 27 73 23 79 79 NNE 7 11 29.91 1013 10 16 N/A
5:56 pm 17:56 Sunny 81 27 73 23 79 79 N 8 13 29.91 1013 10 16 N/A
6:17 pm 18:17 Sunny 77 25 73 23 89 89 N 7 11 29.91 1013 10 16 N/A
6:36 pm 18:36 Sunny 77 25 73 23 89 89 N 7 11 29.91 1013 10 16 N/A
6:56 pm 18:56 Sunny 77 25 73 23 89 89 N 6 9 29.91 1013 10 16 N/A
7:16 pm 19:16 Sunny 77 25 73 23 89 89 N 5 7 29.91 1013 10 16 N/A
7:36 pm 19:36 Sunny 77 25 75 24 94 94 NNE 5 7 29.91 1013 10 16 N/A
7:57 pm 19:57 Sunny 75 24 75 24 100 100 N 5 7 29.91 1013 10 16 N/A
8:16 pm 20:16 Sunny 75 24 73 23 94 94 NNE 3 6 29.91 1013 10 16 N/A
8:37 pm 20:37 Clear 73 23 73 23 100 100 N N/A 29.94 1014 10 16 N/A
8:56 pm 20:56 Clear 72 22 72 22 100 100 N N/A 29.94 1014 10 16 N/A
9:17 pm 21:17 Clear 72 22 72 22 100 100 N N/A 29.94 1014 10 16 N/A
9:37 pm 21:37 Clear 70 21 70 21 100 100 N N/A 29.94 1014 10 16 N/A
9:56 pm 21:56 Clear 68 20 68 20 100 100 N N/A 29.97 1015 10 16 N/A
10:17 pm 22:17 Clear 68 20 68 20 100 100 N N/A 29.97 1015 10 16 N/A
10:36 pm 22:36 Clear 66 19 66 19 100 100 N N/A 29.97 1015 5 8 N/A
10:56 pm 22:56 Clear 68 20 68 20 100 100 N N/A 29.97 1015 3 4 N/A
11:17 pm 23:17 Clear 68 20 68 20 100 100 N N/A 29.97 1015 7 11 N/A
11:36 pm 23:36 Clear 66 19 66 19 100 100 N N/A 29.97 1015 3 5 N/A
11:57 pm 23:57 Clear 66 19 66 19 100 100 N N/A 29.97 1015 5 8 N/A

Powered by AerisWeather